Lake Clear, NY

9:16 AM EST on January 22, 2017 (GMT -0500)
Adirondack Regional

Weather History for KSLK - June, 2013

Change the Weather History Date:

Wednesday, June 19, 2013

  Actual Average Record
Temperature  
Mean Temperature 49 °F 61 °F  
Max Temperature 66 °F 73 °F 91 °F (1957)
Min Temperature 31 °F 49 °F 30 °F (1956)
Degree Days  
Heating Degree Days 17 5  
Month to date heating degree days 140  
Since 1 June heating degree days 140  
Since 1 July heating degree days 9374  
Cooling Degree Days 0 1  
Month to date cooling degree days 8 18  
Year to date cooling degree days 18 21  
Since 1 June cooling degree days 8 18  
Moisture  
Dew Point 35 °F    
Average Humidity 65    
Maximum Humidity 100    
Minimum Humidity 30    
Precipitation  
Precipitation 0.00 in 0.13 in 0.72 in (1962)
Month to date precipitation 5.37 2.49  
Year to date precipitation 16.37 14.84  
Sea Level Pressure  
Sea Level Pressure 30.11 in    
Wind  
Wind Speed 3 mph (NNE)    
Max Wind Speed 14 mph    
Max Gust Speed 20 mph    
Visibility 10 miles    
Events      
T = Trace of Precipitation, MM = Missing Value Source: NWS Daily Summary

Daily Weather History Graph

Daily Weather History Graph

Search for Another Location

Airport or City:

Trip Planner

Search our weather history database for the weather conditions in past years. The results will help you decide how hot, cold, wet, or windy it might be!

Date:

Astronomy

Jun. 19, 2013 Rise Set
Actual Time 5:12 AM EDT 8:44 PM EDT
Civil Twilight 4:35 AM EDT 9:21 PM EDT
Nautical Twilight 3:46 AM EDT 10:09 PM EDT
Astronomical Twilight 2:43 AM EDT 11:12 PM EDT
Moon 4:27 PM EDT (6/19) 2:03 AM EDT (6/19)
Length of Visible Light 16h 45m
Length of Day
15h 32m
Waxing Gibbous, 80% of the Moon is Illuminated
Jun 19
Waxing Gibbous
Jun 23
Full
Jun 30
Last Quarter
Jul 8
New
Jul 15
First Quarter

Hourly Weather History & Observations

Time (EDT) Temp. Dew Point Humidity Pressure Visibility Wind Dir Wind Speed Gust Speed Precip Events Conditions
12:51 AM 39.0 °F 37.9 °F 96% 30.04 in 8.0 mi Calm Calm - N/A   Clear
1:51 AM 37.9 °F 36.0 °F 93% 30.04 in 10.0 mi Calm Calm - N/A   Clear
2:51 AM 35.1 °F 34.0 °F 96% 30.05 in 9.0 mi Calm Calm - N/A   Clear
3:51 AM 33.1 °F 32.0 °F 96% 30.05 in 10.0 mi Calm Calm - N/A   Clear
4:51 AM 32.0 °F 30.9 °F 96% 30.06 in 10.0 mi Calm Calm - N/A   Clear
5:51 AM 32.0 °F 32.0 °F 100% 30.08 in 10.0 mi Calm Calm - N/A   Clear
6:51 AM 42.1 °F 39.0 °F 89% 30.08 in 10.0 mi Calm Calm - N/A   Clear
7:51 AM 50.0 °F 37.9 °F 63% 30.10 in 10.0 mi Calm Calm - N/A   Clear
8:51 AM 54.0 °F 35.1 °F 49% 30.11 in 10.0 mi Variable 4.6 mph - N/A   Clear
9:51 AM 55.9 °F 33.1 °F 42% 30.12 in 10.0 mi NNE 8.1 mph - N/A   Clear
10:51 AM 57.0 °F 34.0 °F 42% 30.12 in 10.0 mi NE 11.5 mph 18.4 mph N/A   Clear
11:51 AM 60.1 °F 34.0 °F 38% 30.13 in 10.0 mi Variable 4.6 mph - N/A   Clear
12:51 PM 61.0 °F 30.9 °F 32% 30.13 in 10.0 mi ENE 9.2 mph 16.1 mph N/A   Clear
1:51 PM 62.1 °F 30.0 °F 30% 30.12 in 10.0 mi ESE 6.9 mph - N/A   Clear
2:51 PM 64.0 °F 35.1 °F 34% 30.12 in 10.0 mi Variable 5.8 mph - N/A   Clear
3:51 PM 64.0 °F 34.0 °F 33% 30.12 in 10.0 mi Calm Calm - N/A   Clear
4:51 PM 64.9 °F 34.0 °F 32% 30.12 in 10.0 mi Variable 4.6 mph - N/A   Clear
5:51 PM 64.9 °F 35.1 °F 33% 30.12 in 10.0 mi NNW 5.8 mph - N/A   Clear
6:51 PM 63.0 °F 36.0 °F 37% 30.12 in 10.0 mi WNW 3.5 mph - N/A   Clear
7:51 PM 61.0 °F 37.0 °F 41% 30.13 in 10.0 mi Calm Calm - N/A   Clear
8:51 PM 51.1 °F 39.9 °F 66% 30.15 in 10.0 mi Calm Calm - N/A   Clear
9:51 PM 45.0 °F 39.9 °F 82% 30.18 in 10.0 mi Calm Calm - N/A   Clear
10:51 PM 41.0 °F 39.0 °F 93% 30.20 in 10.0 mi Calm Calm - N/A   Clear
11:51 PM 39.0 °F 37.0 °F 93% 30.21 in 10.0 mi Calm Calm - N/A   Clear